TOURFACTS.DK  
Stats and Facts from Tour de France.

Tour de France 2018 starts in 11 days
  Riders   Stages   Teams   Summits   Yearly  


 
Search by year

After 2017 - Stage 21:
 14824 starters.
  5132 different riders.
  639 teams.
  2232 stages.
  456 restdays.
  439589.60 km.
  5653 abandonnees.


Top 3
GC
Christopher Froome86:20:55
Rigoberto Urán86:21:49
Romain Bardet86:23:15
Climb
Warren Barguil169 pt.
Primoz Roglic80 pt.
Thomas De Gendt64 pt.
Sprint
Michael Matthews359 pt.
André Greipel234 pt.
Edvald Boasson Hagen220 pt.
Youth
Simon Yates86:27:09
Louis Meintjes86:29:15
Emanuel Buchmann86:54:16
Facts from Tour de France 1963
  |   Stages.  |   Stage winners.  |   Days in yellow  |   Average speed.  |   Route.  |   Teams.  |   All riders.  |   Rookies.  |  

  |   Withdrawls.  |   GC.  |   Polka  |   Green  |   White  |   Summits. (In tour)  |   Miscellaneous.  |  

Stage 15 on 08 - 07 - 1963
         Owning:    Gilbert Desmet 1    
Pick a stage:  1 2a 2b 3 4 5 6a 6b 7 8 9 10 11 12 13 14 15 16 17 18 19 20 21
  Saint-ÉtienneGrenoble | Dist: 174.00 km.
Cat: 3Col de Grand BoisESPFederico Bahamontes
5 points
 
Cat: 1Col de PorteESPFederico Bahamontes
15 points
 

Average speed for all riders in stage:  34,308 km./hr.
    Place:Name:Team:Time:Km/h:
ESPFederico BahamontesFRAMargnat-Paloma-Motul-Dunlop04:59:13  +  00:00:00=34,891 
FRAHenri AngladeFRAPelforth-Sauvage-Lejeune-Wolbe..05:00:29  +  00:01:16=34,744 
BELJos HoevenaersFRAPeugeot-BP-Englebert05:00:29  +  00:01:16=34,744 
4 BELRik Van LooyBELG.B.C-Libertas05:01:15  +  00:02:02=34,656 
5 BELGilbert Desmet 1BELWiel´s-Groene Leeuw05:01:15  +  00:02:02=34,656 
6 FRAJean GaincheFRAMercier-BP-Hutchinson05:01:15  +  00:02:02=34,656 
7 BELArmand DesmetBELFaema-Flandria05:01:15  +  00:02:02=34,656 
8 BELWilly BocklantBELFaema-Flandria05:01:15  +  00:02:02=34,656 
9 BELVictor Van SchilFRAMercier-BP-Hutchinson05:01:15  +  00:02:02=34,656 
10 ESPFernando ManzanequeESPFerrys05:01:15  +  00:02:02=34,656 
11 BELEddy PauwelsBELWiel´s-Groene Leeuw05:01:15  +  00:02:02=34,656 
12 ITARenzo FontonaBELI.B.A.C-Molteni05:01:15  +  00:02:02=34,656 
13 ESPAntonio SuarezBELFaema-Flandria05:01:15  +  00:02:02=34,656 
14 GERHans JunkermannBELWiel´s-Groene Leeuw05:01:15  +  00:02:02=34,656 
15 ESPFrancisco GabicNLDKas05:01:15  +  00:02:02=34,656 
16 FRAFrançois MahéFRAPelforth-Sauvage-Lejeune-Wolbe..05:01:15  +  00:02:02=34,656 
17 FRAClaude MattioFRAMargnat-Paloma-Motul-Dunlop05:01:15  +  00:02:02=34,656 
18 ENGAlan RamsbottomFRAPelforth-Sauvage-Lejeune-Wolbe..05:01:15  +  00:02:02=34,656 
19 FRAJean-Claude LebaubeFRASaint Raphael-Geminiani-Dunlop05:01:15  +  00:02:02=34,656 
20 ESPEsteban MartinESPFerrys05:01:15  +  00:02:02=34,656 
21 FRAJean DottoFRAMargnat-Paloma-Motul-Dunlop05:01:15  +  00:02:02=34,656 
22 FRARaymond PoulidorFRAMercier-BP-Hutchinson05:01:15  +  00:02:02=34,656 
23 ESPJosé Pérez FrancésESPFerrys05:01:15  +  00:02:02=34,656 
24 FRAJacques AnquetilFRASaint Raphael-Geminiani-Dunlop05:01:15  +  00:02:02=34,656 
25 ESPAngelino SolerBELFaema-Flandria05:01:15  +  00:02:02=34,656 
26 ESPMiguel PachecoNLDKas05:01:15  +  00:02:02=34,656 
27 GERDieter PuschelBELWiel´s-Groene Leeuw05:01:15  +  00:02:02=34,656 
28 NEDAlbertus GeldermansFRASaint Raphael-Geminiani-Dunlop05:01:39  +  00:02:26=34,610 
29 FRAGuy IgnolinFRASaint Raphael-Geminiani-Dunlop05:02:17  +  00:03:04=34,537 
30 BELEmile DaemsFRAPeugeot-BP-Englebert05:02:17  +  00:03:04=34,537 
31 BELFerdinand BrackeFRAPeugeot-BP-Englebert05:02:23  +  00:03:10=34,526 
32 ITACarlo AzziniITACarpano05:02:23  +  00:03:10=34,526 
33 ESPJosé GomezBELFaema-Flandria05:02:59  +  00:03:46=34,457 
34 BELFrans BrandsBELFaema-Flandria05:02:59  +  00:03:46=34,457 
35 ITAGiuseppe SartoreITACarpano05:02:59  +  00:03:46=34,457 
36 FRAAndré FoucherFRAPelforth-Sauvage-Lejeune-Wolbe..05:02:59  +  00:03:46=34,457 
37 ESPAntonio BertranESPFerrys05:02:59  +  00:03:46=34,457 
38 BELHenri De WolfFRASolo-Terrot-Englebert05:03:11  +  00:03:58=34,435 
39 ESPRogelio HernandezESPFerrys05:03:11  +  00:03:58=34,435 
40 FRAGuy EpaudFRAPelforth-Sauvage-Lejeune-Wolbe..05:03:11  +  00:03:58=34,435 
41 ITAGraziano BattistiniBELI.B.A.C-Molteni05:03:11  +  00:03:58=34,435 
42 ITADanilo FerrariBELI.B.A.C-Molteni05:03:11  +  00:03:58=34,435 
43 BELMichel Van AerdeFRASolo-Terrot-Englebert05:03:11  +  00:03:58=34,435 
44 ITAGermano BaraleITACarpano05:03:11  +  00:03:58=34,435 
45 BELGilbert Desmet 2BELWiel´s-Groene Leeuw05:03:11  +  00:03:58=34,435 
46 FRAHenry DuezFRAPeugeot-BP-Englebert05:03:11  +  00:03:58=34,435 
47 FRAJean StablinskiFRASaint Raphael-Geminiani-Dunlop05:03:11  +  00:03:58=34,435 
48 FRARobert CazalaFRAMercier-BP-Hutchinson05:03:27  +  00:04:14=34,404 
49 ESPEmilio CruzESPFerrys05:03:27  +  00:04:14=34,404 
50 ESPRaúl ReyESPFerrys05:03:27  +  00:04:14=34,404 
51 ITALoris GuernieriITACarpano05:03:27  +  00:04:14=34,404 
52 SUIKurt GimmiITACarpano05:03:45  +  00:04:32=34,370 
53 ESPLuis OtañoFRAMargnat-Paloma-Motul-Dunlop05:04:00  +  00:04:47=34,342 
54 ESPSebastián ElorzaNLDKas05:04:00  +  00:04:47=34,342 
55 FRAJoseph GroussardFRAPelforth-Sauvage-Lejeune-Wolbe..05:04:13  +  00:05:00=34,318 
56 ESPValentin UrionaNLDKas05:04:26  +  00:05:13=34,293 
57 NEDDick EnthovenFRAPelforth-Sauvage-Lejeune-Wolbe..05:04:26  +  00:05:13=34,293 
58 BELLudo JanssensBELG.B.C-Libertas05:04:26  +  00:05:13=34,293 
59 ESPJulio San EmeterioESPFerrys05:04:26  +  00:05:13=34,293 
60 FRAJoseph ThominFRAMargnat-Paloma-Motul-Dunlop05:04:26  +  00:05:13=34,293 
61 BELMarcel OngenaeBELFaema-Flandria05:05:33  +  00:06:20=34,168 
62 BELWilly DerbovenBELG.B.C-Libertas05:05:33  +  00:06:20=34,168 
63 FRAAnatole NovakFRASaint Raphael-Geminiani-Dunlop05:05:45  +  00:06:32=34,146 
64 FRAGeorges GroussardFRAPelforth-Sauvage-Lejeune-Wolbe..05:05:45  +  00:06:32=34,146 
65 FRAPierre EveraertFRASaint Raphael-Geminiani-Dunlop05:05:45  +  00:06:32=34,146 
66 BELFrans AerenhoutsBELG.B.C-Libertas05:05:56  +  00:06:43=34,125 
67 BELBenoni BeheytBELWiel´s-Groene Leeuw05:05:56  +  00:06:43=34,125 
68 FRAJean MilesiFRAMercier-BP-Hutchinson05:05:56  +  00:06:43=34,125 
69 ESPGabriel MasESPFerrys05:05:56  +  00:06:43=34,125 
70 BELAlfons HellemansFRAMercier-BP-Hutchinson05:05:56  +  00:06:43=34,125 
71 FRAAndré DarrigadeFRAMargnat-Paloma-Motul-Dunlop05:06:17  +  00:07:04=34,086 
72 BELRobert LelangueFRASolo-Terrot-Englebert05:06:17  +  00:07:04=34,086 
73 BELLouis ProostFRASolo-Terrot-Englebert05:06:17  +  00:07:04=34,086 
74 BELRoger De BreukerFRASolo-Terrot-Englebert05:06:17  +  00:07:04=34,086 
75 BELAndré MesselisBELWiel´s-Groene Leeuw05:06:17  +  00:07:04=34,086 
76 BELDaniel DoomBELWiel´s-Groene Leeuw05:06:17  +  00:07:04=34,086 
77 FRAPierre BeuffeuilFRAMercier-BP-Hutchinson05:06:17  +  00:07:04=34,086 
78 ITAAntonio BailettiITACarpano05:06:17  +  00:07:04=34,086 
79 BELGuillaume Van TongerlooBELG.B.C-Libertas05:06:17  +  00:07:04=34,086 
80 ESPJuan CampilloFRAMargnat-Paloma-Motul-Dunlop05:06:17  +  00:07:04=34,086 
81 ESPAntonio KarmanyESPFerrys05:06:17  +  00:07:04=34,086 
82 BELMartin Van GeneugdenBELG.B.C-Libertas05:06:17  +  00:07:04=34,086 
83 NEDHuub ZilverbergBELG.B.C-Libertas05:07:07  +  00:07:54=33,994 
84 ITARoberto FalaschiBELI.B.A.C-Molteni05:08:43  +  00:09:30=33,817 
85 FRAGérard ThiélinFRASaint Raphael-Geminiani-Dunlop05:08:43  +  00:09:30=33,817 
86 BELYvo MolenaersBELWiel´s-Groene Leeuw05:08:43  +  00:09:30=33,817 
87 IRLSeamus ElliottFRASaint Raphael-Geminiani-Dunlop05:08:43  +  00:09:30=33,817 
88 BELRené Van MeenenBELWiel´s-Groene Leeuw05:08:43  +  00:09:30=33,817 
89 FRAJean GraczykFRAMargnat-Paloma-Motul-Dunlop05:11:15  +  00:12:02=33,542 
90 BELRaymond ImpanisFRAPeugeot-BP-Englebert05:12:30  +  00:13:17=33,408 
91 BELAugust VerhaegenFRAMercier-BP-Hutchinson05:12:30  +  00:13:17=33,408 
92 BELJean SimonFRAPeugeot-BP-Englebert05:12:30  +  00:13:17=33,408 
93 LUXCharly GaulFRAPeugeot-BP-Englebert05:12:30  +  00:13:17=33,408 
94 ITAGiuseppe CeramiFRAPeugeot-BP-Englebert05:19:27  +  00:20:14=32,681 

Withdrawls: 1
 
Rider
Team
Reason
9  FRALouis RostollanFRASaint Raphael-Geminiani-DunlopDid not finish

Todays birthdays.

1902  Bernard Wiber
1908  Auguste Van Tricht
1910  Orlando Teani
1913  Gustaaf Deloor
1935  Jean Milesi
1972  Robbie McEwen




Visits: